Weather History for Seattle Boeing, WA

Change the Weather History Date:

Thursday, March 7, 2013

  Actual Average Record
Temperature  
Mean Temperature 48 °F -  
Max Temperature 53 °F 53 °F 66 °F (2001)
Min Temperature 42 °F 38 °F 26 °F (1951)
Degree Days  
Heating Degree Days 18    
Moisture  
Dew Point 39 °F    
Average Humidity 75    
Maximum Humidity 89    
Minimum Humidity 52    
Precipitation  
Precipitation 0.26 in - - ()
Sea Level Pressure  
Sea Level Pressure 30.03 in    
Wind  
Wind Speed 5 mph (SSE)    
Max Wind Speed 8 mph    
Max Gust Speed -    
Visibility 9 miles    
Events Rain    
Averages and records for this station are not official NWS values.
T = Trace of Precipitation, MM = Missing Value Source: NWS Daily Summary

Daily Weather History Graph

Daily Weather History Graph

Search for Another Location

Airport:

Trip Planner

Search our weather history database for the weather conditions in past years. The results will help you decide how hot, cold, wet, or windy it might be!

Date:

Astronomy

Mar. 07, 2013 Rise Set
Actual Time 6:37 AM PST 6:03 PM PST
Civil Twilight 6:06 AM PST 6:34 PM PST
Nautical Twilight 5:31 AM PST 7:09 PM PST
Astronomical Twilight 4:55 AM PST 7:46 PM PST
Moon 3:56 AM PST (3/7) 1:43 PM PST (3/7)
Length of Visible Light 12h 27m
Length of Day
11h 26m
Waning Crescent, 19% of the Moon is Illuminated
Mar 7
Waning Crescent
Mar 11
New
Mar 19
First Quarter
Mar 27
Full
Apr 2
Last Quarter

Hourly Weather History & Observations

Time (PST) Temp. Windchill Dew Point Humidity Pressure Visibility Wind Dir Wind Speed Gust Speed Precip Events Conditions
12:53 AM 43.0 °F 39.5 °F 39.9 °F 89% 29.92 in 8.0 mi SE 5.8 mph - 0.04 in Rain Light Rain
1:51 AM 44.6 °F 40.7 °F 39.2 °F 81% 29.94 in 6.0 mi SSE 6.9 mph - 0.05 in Rain Light Rain
1:53 AM 44.1 °F 40.8 °F 39.9 °F 85% 29.94 in 6.0 mi Variable 5.8 mph - 0.05 in Rain Light Rain
2:53 AM 44.1 °F 40.1 °F 39.0 °F 82% 29.95 in 10.0 mi SE 6.9 mph - 0.05 in Rain Light Rain
3:53 AM 44.1 °F 40.8 °F 39.0 °F 82% 29.96 in 10.0 mi SE 5.8 mph - 0.02 in Rain Light Rain
4:11 AM 44.6 °F 41.4 °F 39.2 °F 81% 29.97 in 10.0 mi ESE 5.8 mph - 0.00 in Rain Light Rain
4:51 AM 44.6 °F 42.2 °F 39.2 °F 81% 29.97 in 9.0 mi SE 4.6 mph - 0.01 in Rain Light Rain
4:53 AM 44.1 °F 40.8 °F 39.9 °F 85% 29.98 in 9.0 mi SE 5.8 mph - 0.01 in Rain Light Rain
5:34 AM 42.8 °F 39.3 °F 39.2 °F 87% 29.99 in 7.0 mi SE 5.8 mph - 0.03 in Rain Light Rain
5:53 AM 44.1 °F 40.8 °F 39.9 °F 85% 29.99 in 8.0 mi SE 5.8 mph - 0.04 in Rain Light Rain
6:53 AM 44.1 °F 40.8 °F 41.0 °F 89% 30.01 in 6.0 mi SE 5.8 mph - 0.02 in Rain Light Rain
7:53 AM 45.0 °F 42.6 °F 41.0 °F 86% 30.03 in 10.0 mi SE 4.6 mph - 0.02 in Rain Light Rain
8:53 AM 46.0 °F 42.5 °F 41.0 °F 83% 30.04 in 10.0 mi SE 6.9 mph - 0.00 in   Overcast
9:53 AM 46.9 °F - 39.9 °F 77% 30.06 in 10.0 mi Variable 4.6 mph - 0.00 in   Overcast
10:53 AM 48.9 °F - 42.1 °F 77% 30.07 in 10.0 mi South 6.9 mph - 0.01 in Rain Light Rain
11:53 AM 48.9 °F - 37.9 °F 66% 30.07 in 10.0 mi SSW 8.1 mph - N/A   Overcast
12:53 PM 51.1 °F - 37.9 °F 61% 30.06 in 10.0 mi SSW 8.1 mph - N/A   Overcast
1:53 PM 53.1 °F - 37.9 °F 57% 30.05 in 10.0 mi West 4.6 mph - N/A   Overcast
2:53 PM 53.1 °F - 37.9 °F 57% 30.05 in 10.0 mi WNW 4.6 mph - N/A   Overcast
3:00 PM 53.6 °F - 37.4 °F 54% 30.06 in 10.0 mi Calm Calm - N/A   Scattered Clouds
3:53 PM 53.1 °F - 36.0 °F 52% 30.06 in 10.0 mi WSW 5.8 mph - N/A   Partly Cloudy
4:53 PM 52.0 °F - 35.1 °F 53% 30.05 in 10.0 mi Calm Calm - N/A   Mostly Cloudy
5:53 PM 51.1 °F - 39.0 °F 63% 30.06 in 10.0 mi NE 4.6 mph - N/A   Overcast
6:53 PM 50.0 °F - 39.0 °F 66% 30.07 in 10.0 mi NE 4.6 mph - N/A   Mostly Cloudy
7:53 PM 48.0 °F - 39.0 °F 71% 30.08 in 10.0 mi Calm Calm - N/A   Clear
8:53 PM 46.9 °F - 39.0 °F 74% 30.08 in 10.0 mi Calm Calm - N/A   Clear
9:53 PM 45.0 °F - 39.0 °F 80% 30.09 in 10.0 mi Calm Calm - N/A   Clear
10:53 PM 44.1 °F - 39.0 °F 82% 30.09 in 10.0 mi Calm Calm - N/A   Partly Cloudy
11:53 PM 43.0 °F - 39.0 °F 86% 30.09 in 10.0 mi Calm Calm - N/A   Scattered Clouds